www.pogodaiklimat.ru

Погода и климат >> Архив погоды >> Бельгия >> Гуман


ПОГОДА в Гумане

  • Прогноз погоды в Гумане
  • Монитор погоды в Гумане

АРХИВ ПОГОДЫ в Гумане

Время (UTC), дата Ветер
(напр.,м/с)
 
Видим.   Явления Облачность Т
(С)
Тd
(С)
f
(%)
Тe
(С)
Тes
(С)
Комфортность P
(гПа)
Po
(гПа)
Тmin
(С)
Tmax
(С)
R
(мм)
R24
(мм)
S
(см)
13 13.06 Ю 10 н/о н/о +16.3 +8.5 60 +14 +14 1013.4 978.7 187
14 13.06 Ю 9 н/о н/о +17.6 +7.6 52 +16 +16 1013.3 978.8 170
15 13.06 Ю 7 н/о н/о +17.7 +9.4 58 +17 +17 1013.0 978.6 190
16 13.06 Ю 7 н/о н/о +15.3 +8.8 65 +14 +14 1014.0 979.2 111
17 13.06 Ю 7 н/о н/о +16.3 +9.1 62 +15 +15 1013.0 978.4 93
18 13.06 Ю 7
{19}
н/о н/о +16.1 +7.9 58 +15 +15 1013.3 978.6 +17.7 0.1 70
19 13.06 Ю 4 н/о н/о +15.4 +8.0 61 +15 +15 1013.4 978.6 16
20 13.06 Ю 3 н/о н/о +13.8 +8.7 71 +13 +13 1014.2 979.2 1
21 13.06 Ю 4 н/о н/о +12.8 +9.1 78 +11 +11 1014.9 979.8
22 13.06 Ю 2 н/о н/о +13.1 +8.6 74 +12 +12 1015.1 980.0
23 13.06 Ю 2 н/о н/о +12.5 +8.2 75 +12 +12 1015.3 980.2
00 14.06 В 3
{11}
н/о н/о +12.0 +7.6 74 +10 +10 1015.1 979.8 173
01 14.06 В 4 н/о н/о +11.2 +7.6 78 +9 +9 1014.8 979.4
02 14.06 В 4 н/о н/о +10.7 +8.1 84 +8 +8 1014.3 979.0
03 14.06 В 4 н/о н/о +10.4 +8.2 86 +8 +8 1014.4 979.0
04 14.06 В 2 н/о н/о +10.2 +8.1 87 +9 +9 1014.9 979.5
05 14.06 ЮВ 2 н/о н/о +10.4 +8.5 88 +9 +9 1015.3 979.8 9
06 14.06 Ю 2
{5}
н/о н/о +11.5 +9.5 88 +10 +10 1016.0 980.7 +9.9 16
07 14.06 ЮВ 2 н/о н/о +12.7 +10.0 84 +12 +12 1016.7 981.5 42
08 14.06 ЮВ 4 н/о н/о +15.7 +10.5 71 +15 +15 1015.6 980.8 88
09 14.06 Ю 2
{6}
н/о н/о +18.2 +10.2 60 +19 +19 1015.3 980.9 125
10 14.06 З 3 н/о н/о +19.3 +10.6 57 +21 +21 комфорт 1015.7 981.3 205
11 14.06 З 2 н/о н/о +20.7 +10.3 51 +23 +23 комфорт 1015.4 981.1 227
12 14.06 ЮЗ 3 н/о н/о +21.8 +11.1 51 +24 +24 комфорт 1014.8 980.8 113
13 14.06 ЮЗ 4 н/о н/о +22.5 +10.9 48 +25 +25 комфорт 1014.4 980.4 245
14 14.06 ЮЗ 2 н/о н/о +22.7 +10.1 45 +25 +25 комфорт 1013.7 979.8 213
15 14.06 ЮЗ 2 н/о н/о +23.2 +10.6 45 +25 +25 комфорт 1013.2 979.3 188
16 14.06 ЮЗ 2 н/о н/о +22.5 +10.9 48 +25 +25 комфорт 1012.9 979.0 116
17 14.06 С 1 н/о н/о +23.1 +10.1 44 +25 +25 комфорт 1012.3 978.5 110
18 14.06 С 1
{9}
н/о н/о +22.4 +11.7 51 +24 +24 комфорт 1012.3 978.4 +23.2 46
19 14.06 Ю 1 н/о н/о +20.1 +12.1 60 +23 +23 комфорт 1012.3 978.1 8
20 14.06 ЮВ 3 н/о н/о +18.7 +12.3 66 +20 +20 1012.9 978.6 1
21 14.06 Ю 3 н/о н/о +17.1 +13.1 77 +17 +17 1013.9 979.4
22 14.06 штиль 0 н/о н/о +16.1 +13.8 86 +16 +16 1013.2 978.6
23 14.06 В 2 н/о н/о +15.5 +14.1 91 +15 +15 1012.4 977.7
00 15.06 В 1
{4}
н/о н/о +15.4 +14.3 93 +16 +16 1012.2 977.5 185
01 15.06 В 1 н/о н/о +15.0 +14.1 94 +15 +15 1011.6 976.9
02 15.06 ЮЗ 1 н/о н/о +15.0 +14.3 96 +15 +15 1012.1 977.4
03 15.06 ЮВ 2 н/о н/о +14.7 +14.1 96 +14 +14 1012.0 977.3
04 15.06 Ю 3 н/о н/о +14.7 +14.1 96 +14 +14 1012.4 977.7
05 15.06 ЮЗ 4 н/о н/о +14.8 +14.2 96 +14 +14 1012.7 977.9 1
06 15.06 З 3
{8}
н/о н/о +14.8 +14.2 96 +14 +14 1013.3 978.5 +14.6 22
07 15.06 ЮЗ 2 н/о н/о +15.3 +14.5 95 +15 +15 1014.1 979.4 35
08 15.06 ЮЗ 4 н/о н/о +15.6 +14.6 94 +15 +15 1014.7 979.9 42
09 15.06 ЮЗ 4
{9}
н/о н/о +16.3 +14.1 87 +16 +16 1015.2 980.5 86
10 15.06 З 5 н/о н/о +17.8 +12.7 72 +17 +17 1015.7 981.1 151
11 15.06 З 6 н/о н/о +19.5 +10.6 56 +20 +20 1016.0 981.6 220
12 15.06 З 5 н/о н/о +19.9 +10.2 54 +21 +21 комфорт 1016.5 982.1 249
13 15.06 З 5 н/о н/о +19.9 +10.4 54 +21 +21 комфорт 1016.2 982.0 197
14 15.06 ЮЗ 5 н/о н/о +19.9 +9.6 51 +21 +21 комфорт 1016.4 982.0 187
15 15.06 ЮЗ 4 н/о н/о +19.3 +10.5 57 +20 +20 1016.5 982.1 134
16 15.06 З 4 н/о н/о +19.7 +11.4 59 +21 +21 комфорт 1016.4 982.1 129
17 15.06 З 5 н/о н/о +20.0 +10.4 54 +21 +21 комфорт 1016.4 982.1 106
18 15.06 ЮЗ 3
{9}
н/о н/о +18.6 +9.9 57 +19 +19 1016.8 982.3 +21.0 50
19 15.06 ЮЗ 3 н/о н/о +17.6 +10.0 61 +18 +18 1017.3 982.6 33
20 15.06 ЮЗ 3 н/о н/о +16.8 +9.8 63 +17 +17 1017.7 982.9 7
21 15.06 ЮЗ 3 н/о н/о +15.3 +9.2 67 +15 +15 1018.4 983.4
22 15.06 ЮЗ 2 н/о н/о +13.9 +9.0 72 +13 +13 1019.1 984.0
23 15.06 Ю 1 н/о н/о +12.8 +8.6 76 +13 +13 1020.1 984.7
00 16.06 Ю 2 н/о н/о +12.5 +9.5 82 +12 +12 1020.4 985.0 165
01 16.06 Ю 2 н/о н/о +12.7 +9.4 80 +12 +12 1020.3 985.0
02 16.06 ЮВ 2 н/о н/о +11.9 +8.5 80 +11 +11 1020.4 985.0
03 16.06 Ю 2 н/о н/о +11.6 +9.3 86 +10 +10 1020.8 985.3
04 16.06 Ю 2 н/о н/о +11.5 +8.5 82 +10 +10 1021.2 985.7
05 16.06 ЮЗ 3 н/о н/о +12.6 +9.8 83 +11 +11 1021.2 985.8 10
06 16.06 ЮЗ 4
{6}
н/о н/о +13.7 +10.2 79 +12 +12 1021.4 986.2 +11.2 40
07 16.06 ЮЗ 5 н/о н/о +14.2 +10.2 77 +13 +13 1021.8 986.6 86
08 16.06 ЮЗ 5 н/о н/о +15.2 +10.7 74 +14 +14 1021.9 986.8 94
09 16.06 ЮЗ 4
{8}
н/о н/о +15.5 +10.2 71 +15 +15 1022.1 987.0 63
10 16.06 ЮЗ 4 н/о н/о +16.1 +10.3 68 +15 +15 1022.2 987.3 90
11 16.06 ЮЗ 4 н/о н/о +17.4 +11.1 66 +17 +17 1022.2 987.5 132
12 16.06 ЮЗ 5 н/о н/о +17.3 +10.5 64 +17 +17 1022.4 987.5 156
13 16.06 ЮЗ 5 н/о н/о +18.8 +10.7 59 +19 +19 1022.2 987.5 198
14 16.06 ЮЗ 3 н/о н/о +18.2 +9.8 58 +19 +19 1022.2 987.5 160
15 16.06 ЮЗ 2 н/о н/о +18.8 +9.8 56 +20 +20 1022.0 987.4 79
16 16.06 З 2 н/о н/о +18.8 +10.6 59 +20 +20 1021.9 987.2 107
17 16.06 ЮЗ 3 н/о н/о +19.3 +10.7 57 +21 +21 комфорт 1021.8 987.3 88
18 16.06 ЮЗ 2
{8}
н/о н/о +19.0 +10.5 58 +20 +20 1021.9 987.3 +19.9 76
19 16.06 ЮЗ 1 н/о н/о +17.5 +9.9 61 +19 +19 1022.1 987.3 16
20 16.06 ЮЗ 2 н/о н/о +16.9 +9.7 63 +17 +17 1022.4 987.5 6
21 16.06 ЮВ 1 н/о н/о +16.1 +10.2 68 +17 +17 1022.7 987.7
22 16.06 В 2 н/о н/о +13.3 +10.3 82 +13 +13 1022.9 987.6
23 16.06 В 2 н/о н/о +12.5 +10.2 86 +12 +12 1023.1 987.6
00 17.06 В 4 н/о н/о +11.8 +9.8 88 +10 +10 1023.2 987.6 140
01 17.06 В 4 н/о н/о +11.2 +9.5 89 +9 +9 1023.2 987.6
02 17.06 В 4 н/о н/о +10.9 +9.3 90 +8 +8 1022.9 987.3
03 17.06 В 3 н/о н/о +10.3 +8.8 90 +8 +8 1022.7 987.0
04 17.06 В 3 н/о н/о +10.4 +9.2 92 +8 +8 1022.9 987.2
05 17.06 В 3 н/о н/о +12.1 +10.4 89 +10 +10 1022.4 986.9 11
06 17.06 В 1
{5}
н/о н/о +14.6 +11.8 83 +15 +15 1022.1 987.0 +10.1 46
07 17.06 В 2 н/о н/о +17.2 +12.7 75 +18 +18 1021.9 987.1 89
08 17.06 Ю 1 н/о н/о +19.1 +11.9 63 +21 +21 комфорт 1021.6 987.0 134
09 17.06 Ю 3
{5}
н/о н/о +20.2 +11.2 56 +22 +22 комфорт 1021.1 986.7 185
10 17.06 ЮВ 2 н/о н/о +21.6 +11.2 52 +24 +24 комфорт 1020.6 986.3 231
11 17.06 С 2 н/о н/о +21.8 +10.5 49 +24 +24 комфорт 1020.2 985.9 251
12 17.06 В 2 н/о н/о +22.2 +11.7 51 +24 +24 комфорт 1019.6 985.5 210
13 17.06 СВ 1 н/о н/о +23.3 +10.6 45 +25 +25 комфорт 1019.0 985.0 271
14 17.06 ЮЗ 2 н/о н/о +23.7 +10.5 43 +25 +25 комфорт 1018.5 984.6 229
15 17.06 Ю 2 н/о н/о +23.7 +10.3 43 +25 +25 комфорт 1018.3 984.3 196
16 17.06 ЮВ 2 н/о н/о +24.4 +11.1 43 +26 +26 жарко 1017.7 983.8 135
17 17.06 ЮВ 2 н/о н/о +23.9 +10.7 43 +25 +25 комфорт 1017.6 983.7 129
18 17.06 ЮВ 2
{5}
н/о н/о +23.1 +11.8 49 +26 +26 жарко 1017.2 983.2 +24.7 79
19 17.06 ЮВ 1 н/о н/о +22.5 +11.1 48 +25 +25 комфорт 1017.2 983.2 35
20 17.06 В 1 н/о н/о +21.7 +9.9 47 +23 +23 комфорт 1017.2 983.1 7
21 17.06 В 2 н/о н/о +18.9 +10.7 59 +20 +20 1017.7 983.2
22 17.06 З 1 н/о н/о +17.7 +11.1 65 +19 +19 1018.1 983.4
23 17.06 В 2 н/о н/о +15.8 +10.9 73 +16 +16 1018.0 983.2
00 18.06 Ю 1 н/о н/о +15.8 +11.3 75 +17 +17 1018.0 983.1 224
01 18.06 В 1 н/о н/о +13.8 +10.4 80 +14 +14 1018.1 982.9
02 18.06 ЮВ 1 н/о н/о +14.1 +10.9 81 +14 +14 1017.6 982.5
03 18.06 В 3 н/о н/о +13.1 +10.7 85 +12 +12 1017.2 982.1
04 18.06 В 2 н/о н/о +12.6 +10.1 85 +12 +12 1017.2 982.0
05 18.06 В 3 н/о н/о +13.4 +10.5 83 +12 +12 1017.1 982.0 11
06 18.06 В 1
{4}
н/о н/о +15.9 +12.6 81 +17 +17 1016.9 982.1 +12.4 45
07 18.06 В 2 н/о н/о +18.4 +13.3 72 +19 +19 1016.2 981.7 87
08 18.06 н/о н/о +20.2 +15.1 72 1015.9 981.7 119
09 18.06 С 2
{3}
н/о н/о +22.9 +12.5 52 +26 +26 жарко 1015.1 981.2 163
10 18.06 СВ 2 н/о н/о +23.1 +11.9 49 +26 +26 жарко 1014.8 980.9 179
11 18.06 З 1 н/о н/о +24.2 +11.7 46 +26 +26 жарко 1014.5 980.8 207
12 18.06 З 2 н/о н/о +24.2 +12.8 49 +26 +26 жарко 1014.1 980.4 140
13 18.06 СВ 1 н/о н/о +25.0 +12.1 45 +27 +27 жарко 1013.9 980.3 159
14 18.06 Ю 1 н/о н/о +25.1 +11.9 44 +27 +27 жарко 1013.5 979.8 159
15 18.06 Ю 1 н/о н/о +25.7 +12.6 44 +27 +27 жарко 1013.0 979.5 148
16 18.06 ЮЗ 2 н/о н/о +25.4 +12.4 44 +27 +27 жарко 1012.3 978.8 176
17 18.06 Ю 2 н/о н/о +25.1 +13.2 48 +27 +27 жарко 1011.9 978.4 121
18 18.06 Ю 2
{4}
н/о н/о +24.1 +10.8 43 +25 +25 комфорт 1011.9 978.2 +25.9 72
19 18.06 Ю 2 н/о н/о +22.4 +11.4 50 +25 +25 комфорт 1012.3 978.4 27
20 18.06 ЮВ 2 н/о н/о +21.2 +11.6 54 +23 +23 комфорт 1012.4 978.4 3
21 18.06 В 3 н/о н/о +19.8 +12.8 64 +22 +22 комфорт 1012.3 978.2
22 18.06 В 3 н/о н/о +18.1 +12.5 70 +18 +18 1012.0 977.7
23 18.06 В 3 н/о н/о +18.3 +12.1 67 +19 +19 1011.5 977.2
00 19.06 В 3 н/о н/о +17.4 +12.0 71 +17 +17 1011.0 976.6 182
01 19.06 В 3 н/о н/о +17.6 +12.1 70 +18 +18 1010.6 976.2
02 19.06 В 3 н/о н/о +17.4 +12.6 73 +17 +17 1010.0 975.6
03 19.06 В 3 н/о н/о +17.9 +12.7 72 +18 +18 1009.6 975.3
04 19.06 В 4 н/о н/о +18.3 +12.7 70 +19 +19 1008.5 974.3
05 19.06 В 3 н/о н/о +18.9 +13.2 69 +20 +20 1008.0 973.9 10
06 19.06 Ю 3
{5}
н/о н/о +20.3 +13.4 65 +23 +23 комфорт 1008.3 974.3 +16.7 44
07 19.06 Ю 4 н/о н/о +20.0 +13.4 66 +22 +22 комфорт 1008.6 974.7 57
08 19.06 Ю 4 н/о н/о +22.2 +14.1 60 +25 +25 комфорт 1009.0 975.3 132
09 19.06 ЮЗ 5
{12}
н/о н/о +22.9 +15.0 61 +27 +27 душно 1009.3 975.6
10 19.06 ЮЗ 3 н/о н/о +22.3 +14.9 63 +26 +26 жарко 1009.1 975.3 77
11 19.06 Ю 2 н/о н/о +21.4 +14.8 66 +24 +24 комфорт 1009.4 975.5 43
12 19.06 Ю 3
{12}
н/о н/о +22.8 +14.1 58 +26 +26 жарко 1009.3 975.6 111
13 19.06 ЮЗ 6 н/о н/о +24.2 +12.2 47 +26 +26 жарко 1008.7 975.1 157
14 19.06 Ю 6 н/о н/о +26.0 +12.7 44 +28 +28 жарко 1007.7 974.4 213
15 19.06 Ю 8 н/о н/о +25.5 +14.0 49 +28 +28 жарко 1007.5 974.2 109
16 19.06 З 5 н/о н/о +23.1 +13.9 56 +27 +27 душно 1007.9 974.2 111
17 19.06 З 4 н/о н/о +18.7 +13.7 73 +19 +19 1009.4 975.3 49
18 19.06 ЮВ 2
{14}
н/о н/о +19.3 +13.3 68 +21 +21 комфорт 1009.8 975.6 +26.0 81
19 19.06 Ю 1 н/о н/о +18.3 +14.7 80 +20 +20 1010.0 975.7 20
20 19.06 ЮВ 3 н/о н/о +17.5 +15.0 85 +18 +18 1009.7 975.4 2
21 19.06 СЗ 3 н/о н/о +16.8 +14.1 84 +17 +17 1010.7 976.2
22 19.06 Ю 2 н/о н/о +16.0 +13.6 86 +16 +16 1011.2 976.6
23 19.06 ЮЗ 3 н/о н/о +16.0 +14.2 89 +16 +16 1011.5 976.9
00 20.06 З 5
{11}
н/о н/о +15.1 +12.9 87 +14 +14 1011.8 977.1 135
01 20.06 З 4 н/о н/о +14.3 +12.7 90 +13 +13 1012.0 977.2
02 20.06 ЮВ 1 н/о н/о +13.6 +12.2 91 +14 +14 1012.5 977.6
03 20.06 ЮЗ 3 н/о н/о +14.3 +13.1 92 +13 +13 1012.7 977.9
04 20.06 ЮЗ 3 н/о н/о +13.8 +12.7 93 +13 +13 1013.0 978.1
05 20.06 ЮЗ 2 н/о н/о +13.8 +12.7 93 +13 +13 1013.4 978.5 4
06 20.06 Ю 2
{7}
н/о н/о +14.3 +13.1 92 +14 +14 1013.4 978.6 +13.5 31
07 20.06 Ю 2 н/о н/о +14.9 +12.8 87 +15 +15 1013.2 978.5 61
08 20.06 ЮЗ 4 н/о н/о +15.9 +13.6 86 +15 +15 1013.5 978.9 63
09 20.06 ЮЗ 4
{6}
н/о н/о +16.3 +12.8 80 +16 +16 1013.5 978.9 78
10 20.06 З 3 н/о н/о +14.3 +12.9 91 +13 +13 1014.2 979.3 27
11 20.06 З 3 н/о н/о +14.4 +13.4 94 +13 +13 1014.7 979.8 32
12 20.06 З 2 н/о н/о +15.7 +14.7 94 +16 +16 1014.6 979.9 79

 

Местоположение метеостанции Гуман (Бельгия): широта 50.20 долгота 5.25 высота над уровнем моря 294 м.

В архиве по умолчанию представлена погода в Гумане за последнюю неделю. Архивные данные за месяц целиком и за предыдущие месяцы, начиная с января 2011 года, Вы можете получить, выбрав интересующий диапазон дат из раскрывающегося списка и нажав кнопку "Ввод!".


*Определитесь, кто Вы:
робот инопланетянин человек

Внимание! Время в таблицах - всемирное. Для получения местного времени необходимо прибавить поправку, которая равна 1 ч.

Смотрите также архив погоды в соседних городах и на ближайших метеорологических станциях:

Погода в Сент-Губерте (Бельгия) (22 км)
Погода во Флорене (Бельгия) (43 км)
Погода в Дурбе (Бельгия) (48 км)
Погода в Бьерсете (Бельгия) (52 км)
Погода в Спа (Бельгия) (57 км)
Погода в Шарлеруа (Бельгия) (64 км)
Погода в Чарвилле (Франция) (64 км)
Погода в Эрнаже (Бельгия) (66 км)
Погода на Монт-Риги (Бельгия) (68 км)
Погода в Бюзеноле (Бельгия) (69 км)

Пояснения к столбцам:

Ветер - указаны скорость ветра в м/с - средняя за 10 мин, порывы в срок и между сроками (в фигурных скобках) и направление, откуда дует ветер: С - северный, СВ - северо-восточный, В - восточный, ЮВ - юго-восточный, Ю - южный, ЮЗ - юго-западный, З - западный, СЗ - северо-западный.
Видимость - горизонтальная дальность видимости в метрах или километрах. При видимости от 1 до 10 км при отсутствии осадков обычно наблюдается дымка, при ухудшении видимости до 1 км и менее - туман. В сухую погоду видимость может ухудшаться дымом, пылью или мглою.
Явления - указаны атмосферные явления, наблюдавшиеся в срок или в последний час перед сроком; фигурными скобками обозначены явления, наблюдавшиеся между сроками (за 1-3 часа до срока); квадратными скобками обозначены град или гололедные отложения с указанием их диаметра в мм.
Облачность - указаны через наклонную черту общая и нижняя облачность в баллах и высота нижней границы облаков в метрах; квадратными скобками обозначены формы облаков: Ci - перистые, Cs - перисто-слоистые, Cc - перисто-кучевые, Ac - высококучевые, As - высокослоистые, Sc - слоисто-кучевые, Ns - слоисто-дождевые, Cu - кучевые, Cb - кучево-дождевые. Подробнее классификацию облаков см. в Атласе облаков (PDF).
T - Температура воздуха - температура, измеренная на высоте 2 м над землей.
Td - Температура точки росы - температура, при понижении до которой содержащийся в воздухе водяной пар достигнет насыщения.
f - Относительная влажность воздуха - влажноcть воздуха, измеренная на высоте 2 м над землей.
Te - Эффективная температура - температура, которую ощущает одетый по сезону человек в тени. Характеристика душности погоды. При расчете учитывается влияние влажности воздуха и скорости ветра на теплоощущения человека.
Tes - Эффективная температура на солнце - температура, которую ощущает человек, с поправкой на солнечный нагрев. Характеристика знойности погоды. Зависит от высоты солнца над горизонтом, облачности и скорости ветра. Ночью, в пасмурную погоду, а также при ветре 12 м/с и более поправка равна нулю.
P - Атмосферное давление - приведенное к уровню моря атмосферное давление.
Po - Атмосферное давление - измеренное на уровне метеостанции атмосферное давление.
Tmin - Минимальная температура - минимум температуры воздуха на высоте 2 м над землей.
Tmax - Максимальная температура - максимум температуры воздуха на высоте 2 м над землей.
R - Количество осадков - Количество выпавших осадков за период времени, мм. При наведении курсора мыши на число - период времени, за который выпало указанное количество осадков.
R24 - Количество осадков - Количество выпавших осадков за 24 часа, мм.
S - Снежный покров - Высота снежного покрова, см. При наведении курсора мыши на число - состояние снежного покрова и степень покрытия местности в баллах.